Regional Weather Roundup
Issued by NWS

Home | Current Version | Previous Version | Graphics & Text | Print | Product List | Glossary On
Versions: 1 2 3 4 5 6 7 8 9 10 11 12 13 14 15 16 17 18 19 20 21 22 23 24 25 26 27 28 29 30 31 32 33 34 35 36 37 38 39 40 41 42 43 44 45 46 47 48 49 50
000
ASUS43 KFSD 161202
RWRSD

WEATHER ROUNDUP FOR SOUTH DAKOTA
NATIONAL WEATHER SERVICE SIOUX FALLS SD
600 AM CST TUE JAN 16 2018

NOTE: "FAIR" INDICATES FEW OR NO CLOUDS BELOW 12,000 FEET WITH NO
SIGNIFICANT WEATHER AND/OR OBSTRUCTIONS TO VISIBILITY.


SDZ001>005-009-010-012>017-161300-
NORTHWEST AND NORTH CENTRAL SOUTH DAKOTA

CITY           SKY/WX    TMP DP  RH WIND       PRES   REMARKS
BUFFALO          N/A    -11 -17  75 S7        30.45F WCI -26
FAITH            N/A    -16 -20  82 SW8       30.63F WCI -34
MOBRIDGE       PTCLDY   -16 -23  70 CALM      30.71F
$$

SDZ012>016-024>037-041>051-057-063-072>074-161300-
SOUTHWEST AND SOUTH CENTRAL SOUTH DAKOTA

CITY           SKY/WX    TMP DP  RH WIND       PRES   REMARKS
RAPID CTY ARPT CLEAR    -13 -17  82 SE3       30.56F
PIERRE         CLEAR    -10 -14  82 W7        30.76F WCI -25
CUSTER         CLEAR     -5 -20  48 W3        30.36F
ELLSWORTH AFB  PTCLDY    -8 -13  80 SW5       30.54F WCI -20
PHILIP         CLEAR    -14 -19  79 CALM      30.71F
PINE RIDGE     PTCLDY   -19 -24  77 NW3       30.60F
SPEARFISH        N/A     -2 -11  65 S7        30.47F WCI -16
WINNER         FAIR      -7 -14  71 W7        30.73F WCI -21
$$

SDZ004>011-016>023-039-040-161300-
NORTHEAST SOUTH DAKOTA

CITY           SKY/WX    TMP DP  RH WIND       PRES   REMARKS
ABERDEEN       PTCLDY   -12 -17  78 CALM      30.79S
WATERTOWN      CLOUDY   -11 -15  82 NW10      30.68S WCI -30
BROOKINGS      CLOUDY    -9 -13  83 NW10      30.70R WCI -27
SISSETON         N/A    -10 -16  74 NW13      30.76F WCI -30
$$

SDZ017-020-022-023-036>040-048>070-161300-
SOUTHEAST SOUTH DAKOTA

CITY           SKY/WX    TMP DP  RH WIND       PRES   REMARKS
SIOUX FALLS    CLOUDY    -6 -10  83 NW12      30.72R WCI -25
HURON          CLOUDY   -10 -16  74 NW10      30.80S WCI -29
CHAMBERLAIN    CLEAR     -8 -13  76 W5        30.78S WCI -19
MITCHELL       CLOUDY    -7 -14  71 NW10      30.80S WCI -25
YANKTON        CLOUDY    -5 -11  75 NW16      30.78S WCI -27
$$

ABBREVIATIONS USED IN REMARKS
   TC - TEMPERATURE IN CELSIUS
  WCI - WIND CHILL INDEX
   HX - HEAT INDEX
  VSB - VISIBILITY




USA.gov is the U.S. government's official web portal to all federal, state and local government web resources and services.